| time (UTC) | temp C | wind direction | speed KPH | gust KPH | rain 1hr cm | rain 24hr cm | rain mn cm | humidity % | barometer mb |
| 20260507124529 | 7 | 360 | 1.6 | 8.0 | 0.00 | 0.25 | 0.00 | 65 | 1012.4 |
| 20260507123026 | 6 | 5 | 3.2 | 8.0 | 0.00 | 0.25 | 0.00 | 67 | 1012.3 |
| 20260507121531 | 6 | 351 | 3.2 | 8.0 | 0.00 | 0.25 | 0.00 | 68 | 1012.4 |
| 20260507120028 | 6 | 30 | 3.2 | 6.4 | 0.00 | 0.25 | 0.00 | 68 | 1012.2 |
| 20260507114530 | 5 | 58 | 3.2 | 8.0 | 0.00 | 0.36 | 0.00 | 69 | 1012.1 |
| 20260507113029 | 5 | 36 | 1.6 | 6.4 | 0.00 | 0.36 | 0.00 | 72 | 1012.0 |
| 20260507111530 | 3 | 0 | 0.0 | 1.6 | 0.00 | 0.36 | 0.00 | 74 | 1011.8 |
| 20260507110027 | 3 | 0 | 0.0 | 3.2 | 0.00 | 0.36 | 0.00 | 76 | 1011.7 |
| 20260507104530 | 3 | 300 | 0.0 | 3.2 | 0.00 | 0.41 | 0.00 | 76 | 1011.6 |
| 20260507103029 | 3 | 0 | 0.0 | 0.0 | 0.00 | 0.41 | 0.00 | 76 | 1011.6 |
| 20260507101530 | 3 | 0 | 0.0 | 0.0 | 0.00 | 0.41 | 0.00 | 75 | 1011.5 |
| 20260507100035 | 3 | 0 | 0.0 | 0.0 | 0.00 | 0.41 | 0.00 | 74 | 1011.5 |
| 20260507094526 | 4 | 0 | 0.0 | 0.0 | 0.00 | 0.41 | 0.00 | 74 | 1011.4 |
| 20260507093028 | 4 | 0 | 0.0 | 1.6 | 0.00 | 0.41 | 0.00 | 72 | 1011.2 |
| 20260507091534 | 5 | 0 | 0.0 | 3.2 | 0.00 | 0.41 | 0.00 | 71 | 1011.4 |
| 20260507090027 | 5 | 0 | 0.0 | 0.0 | 0.00 | 0.41 | 0.00 | 69 | 1011.3 |
| 20260507084531 | 6 | 0 | 0.0 | 1.6 | 0.00 | 0.41 | 0.00 | 68 | 1011.3 |
| 20260507083030 | 6 | 52 | 0.0 | 3.2 | 0.00 | 0.41 | 0.00 | 65 | 1011.4 |
| 20260507081529 | 6 | 57 | 1.6 | 4.8 | 0.00 | 0.41 | 0.00 | 63 | 1011.4 |
| 20260507080029 | 7 | 71 | 1.6 | 9.7 | 0.00 | 0.41 | 0.00 | 64 | 1011.4 |
| 20260507074530 | 7 | 73 | 1.6 | 6.4 | 0.00 | 0.41 | 0.00 | 64 | 1011.4 |
| 20260507073032 | 7 | 71 | 1.6 | 4.8 | 0.00 | 0.41 | 0.00 | 64 | 1011.5 |
| 20260507071533 | 7 | 42 | 0.0 | 3.2 | 0.00 | 0.41 | 0.00 | 66 | 1011.3 |
| 20260507070034 | 7 | 70 | 1.6 | 6.4 | 0.00 | 0.41 | 0.00 | 65 | 1011.4 |
| 20260507064544 | 7 | 0 | 1.6 | 3.2 | 0.00 | 0.41 | 0.00 | 65 | 1011.5 |
| 20260507063034 | 7 | 0 | 0.0 | 6.4 | 0.00 | 0.41 | 0.00 | 63 | 1011.4 |
| 20260507061531 | 7 | 56 | 3.2 | 8.0 | 0.00 | 0.41 | 0.00 | 61 | 1011.6 |
| 20260507060028 | 7 | 69 | 0.0 | 8.0 | 0.00 | 0.41 | 0.00 | 61 | 1011.8 |
| 20260507054530 | 8 | 34 | 4.8 | 12.9 | 0.00 | 0.41 | 0.00 | 60 | 1011.7 |
| 20260507053028 | 8 | 64 | 4.8 | 14.5 | 0.00 | 0.41 | 0.00 | 61 | 1011.6 |
| 20260507051528 | 8 | 53 | 3.2 | 8.0 | 0.00 | 0.41 | 0.00 | 68 | 1011.7 |
| 20260507050039 | 8 | 0 | 1.6 | 4.8 | 0.00 | 0.41 | 0.00 | 64 | 1011.7 |
| 20260507044532 | 8 | 0 | 0.0 | 0.0 | 0.00 | 0.41 | 0.00 | 63 | 1011.7 |
| 20260507043030 | 8 | 0 | 0.0 | 8.0 | 0.00 | 0.41 | 0.00 | 58 | 1011.9 |
| 20260507041530 | 8 | 105 | 1.6 | 11.3 | 0.00 | 0.41 | 0.00 | 56 | 1011.7 |
| 20260507040029 | 8 | 138 | 0.0 | 9.7 | 0.00 | 0.41 | 0.00 | 58 | 1011.6 |
| 20260507034529 | 8 | 67 | 3.2 | 8.0 | 0.00 | 0.41 | 0.41 | 58 | 1011.6 |
| 20260507033030 | 9 | 65 | 1.6 | 17.7 | 0.00 | 0.41 | 0.41 | 56 | 1011.6 |
| 20260507031533 | 9 | 86 | 4.8 | 20.9 | 0.00 | 0.41 | 0.41 | 54 | 1011.5 |
| 20260507030030 | 9 | 109 | 3.2 | 19.3 | 0.00 | 0.41 | 0.41 | 63 | 1011.2 |
| 20260507024528 | 9 | 113 | 8.0 | 22.5 | 0.00 | 0.41 | 0.41 | 77 | 1011.1 |
| 20260507023030 | 9 | 0 | 0.0 | 1.6 | 0.00 | 0.41 | 0.41 | 79 | 1010.8 |
| 20260507021527 | 9 | 0 | 0.0 | 6.4 | 0.00 | 0.41 | 0.41 | 79 | 1010.8 |
| 20260507020029 | 10 | 105 | 1.6 | 4.8 | 0.00 | 0.41 | 0.41 | 78 | 1010.9 |
| 20260507014527 | 10 | 82 | 0.0 | 6.4 | 0.00 | 0.41 | 0.41 | 78 | 1011.3 |
| 20260507013027 | 10 | 57 | 1.6 | 6.4 | 0.00 | 0.41 | 0.41 | 78 | 1011.2 |
| 20260507011531 | 10 | 59 | 1.6 | 9.7 | 0.00 | 0.41 | 0.41 | 78 | 1011.3 |
| 20260507010038 | 10 | 50 | 3.2 | 8.0 | 0.00 | 0.41 | 0.41 | 78 | 1011.2 |
| 20260507004529 | 10 | 57 | 3.2 | 12.9 | 0.00 | 0.41 | 0.41 | 78 | 1011.2 |
| 20260507003028 | 10 | 35 | 3.2 | 8.0 | 0.00 | 0.41 | 0.41 | 79 | 1010.7 |
| 20260507001526 | 11 | 58 | 4.8 | 20.9 | 0.00 | 0.41 | 0.41 | 78 | 1010.3 |
| 20260507000028 | 11 | 69 | 4.8 | 17.7 | 0.00 | 0.41 | 0.41 | 78 | 1010.0 |
| 20260506234531 | 11 | 78 | 11.3 | 19.3 | 0.00 | 0.41 | 0.41 | 79 | 1009.7 |
| 20260506233028 | 11 | 76 | 4.8 | 12.9 | 0.00 | 0.41 | 0.41 | 79 | 1009.4 |
| 20260506231529 | 11 | 19 | 4.8 | 20.9 | 0.00 | 0.41 | 0.41 | 80 | 1009.3 |
| 20260506230030 | 11 | 79 | 6.4 | 20.9 | 0.00 | 0.41 | 0.41 | 79 | 1009.5 |
| 20260506224532 | 11 | 79 | 9.7 | 19.3 | 0.00 | 0.41 | 0.41 | 79 | 1009.4 |
| 20260506223030 | 12 | 88 | 9.7 | 19.3 | 0.00 | 0.41 | 0.41 | 78 | 1009.0 |
| 20260506221530 | 12 | 94 | 6.4 | 17.7 | 0.00 | 0.41 | 0.41 | 79 | 1008.8 |
| 20260506220035 | 12 | 77 | 9.7 | 25.7 | 0.00 | 0.41 | 0.41 | 78 | 1008.8 |
| 20260506214527 | 13 | 93 | 11.3 | 27.4 | 0.00 | 0.41 | 0.41 | 78 | 1008.6 |
| 20260506213028 | 13 | 65 | 12.9 | 29.0 | 0.00 | 0.41 | 0.41 | 78 | 1008.3 |
| 20260506211533 | 13 | 53 | 9.7 | 27.4 | 0.00 | 0.41 | 0.41 | 79 | 1008.1 |
| 20260506210033 | 13 | 62 | 12.9 | 27.4 | 0.00 | 0.41 | 0.41 | 80 | 1007.6 |
| 20260506204535 | 14 | 37 | 16.1 | 27.4 | 0.00 | 0.48 | 0.41 | 79 | 1007.4 |
| 20260506203031 | 14 | 48 | 8.0 | 19.3 | 0.00 | 0.48 | 0.41 | 82 | 1007.3 |
| 20260506201537 | 14 | 50 | 16.1 | 25.7 | 0.00 | 0.48 | 0.41 | 80 | 1007.3 |
| 20260506200030 | 14 | 51 | 12.9 | 24.1 | 0.00 | 0.48 | 0.41 | 82 | 1007.0 |
| 20260506194528 | 15 | 55 | 16.1 | 24.1 | 0.00 | 0.48 | 0.41 | 81 | 1006.8 |
| 20260506193028 | 15 | 53 | 14.5 | 25.7 | 0.00 | 0.48 | 0.41 | 82 | 1006.6 |
| 20260506191527 | 16 | 51 | 17.7 | 25.7 | 0.00 | 0.48 | 0.41 | 81 | 1006.5 |
| 20260506190031 | 15 | 37 | 8.0 | 16.1 | 0.00 | 0.48 | 0.41 | 84 | 1006.5 |
| 20260506184531 | 15 | 57 | 6.4 | 17.7 | 0.00 | 0.48 | 0.41 | 87 | 1006.3 |
| 20260506183027 | 14 | 10 | 11.3 | 19.3 | 0.00 | 0.48 | 0.41 | 88 | 1006.5 |
| 20260506181530 | 14 | 52 | 11.3 | 24.1 | 0.00 | 0.48 | 0.41 | 89 | 1006.6 |
| 20260506180032 | 15 | 44 | 11.3 | 22.5 | 0.00 | 0.48 | 0.41 | 89 | 1006.4 |
| 20260506174532 | 15 | 57 | 6.4 | 16.1 | 0.00 | 0.48 | 0.41 | 89 | 1006.4 |
| 20260506173030 | 14 | 355 | 8.0 | 17.7 | 0.00 | 0.48 | 0.41 | 89 | 1006.2 |
| 20260506171539 | 15 | 348 | 6.4 | 29.0 | 0.00 | 0.48 | 0.41 | 87 | 1006.2 |
| 20260506170027 | 15 | 306 | 6.4 | 20.9 | 0.00 | 0.48 | 0.41 | 86 | 1006.1 |
| 20260506164528 | 15 | 5 | 3.2 | 22.5 | 0.00 | 0.48 | 0.41 | 89 | 1006.1 |
| 20260506163034 | 15 | 355 | 11.3 | 24.1 | 0.00 | 0.48 | 0.41 | 87 | 1006.1 |
| 20260506161532 | 15 | 9 | 14.5 | 24.1 | 0.00 | 0.48 | 0.41 | 88 | 1006.2 |
| 20260506160031 | 14 | 360 | 11.3 | 22.5 | 0.03 | 0.48 | 0.41 | 89 | 1006.2 |
| 20260506154533 | 13 | 355 | 9.7 | 25.7 | 0.03 | 0.48 | 0.41 | 89 | 1006.2 |
| 20260506153027 | 13 | 5 | 12.9 | 25.7 | 0.03 | 0.48 | 0.41 | 88 | 1006.1 |
| 20260506151530 | 13 | 17 | 14.5 | 29.0 | 0.05 | 0.48 | 0.41 | 87 | 1005.8 |
| 20260506150028 | 14 | 321 | 12.9 | 24.1 | 0.03 | 0.46 | 0.38 | 87 | 1005.7 |
| 20260506144527 | 14 | 333 | 9.7 | 25.7 | 0.05 | 0.46 | 0.38 | 87 | 1005.6 |
| 20260506143028 | 13 | 5 | 14.5 | 35.4 | 0.08 | 0.46 | 0.38 | 87 | 1005.7 |
| 20260506141528 | 13 | 344 | 12.9 | 33.8 | 0.05 | 0.43 | 0.36 | 88 | 1005.6 |
| 20260506140034 | 13 | 325 | 8.0 | 30.6 | 0.08 | 0.43 | 0.36 | 88 | 1005.5 |
| 20260506134529 | 13 | 15 | 9.7 | 25.7 | 0.08 | 0.41 | 0.33 | 86 | 1005.7 |
| 20260506133031 | 13 | 341 | 12.9 | 27.4 | 0.08 | 0.38 | 0.30 | 86 | 1005.7 |
| 20260506131530 | 13 | 46 | 6.4 | 20.9 | 0.13 | 0.38 | 0.30 | 87 | 1005.8 |
| 20260506130030 | 13 | 348 | 6.4 | 19.3 | 0.13 | 0.36 | 0.28 | 86 | 1005.8 |